When you browse on this site, cookies collect data to enhance your experience and personalize the content and advertising you see.
Visit our Privacy Policy to learn more. By continuing to use the site, you agree to this use of cookies and data.
EN

Hourly Weather Gjirokaster

Today, 28 September, Monday

Time Temperature Precipitation Wind Pressure Humidity
00:00 +10°C° 0.2 mm 4 mps 650 mmHg 87%
01:00 +11°C° 0 mm 4 mps 649 mmHg 88%
02:00 +10°C° 2.2 mm 4 mps 649 mmHg 88%
03:00 +9°C° 2.2 mm 5 mps 648 mmHg 89%
04:00 +9°C° 2.2 mm 5 mps 648 mmHg 90%
05:00 +9°C° 0.4 mm 5 mps 649 mmHg 89%
06:00 +10°C° 0.4 mm 4 mps 649 mmHg 88%
07:00 +11°C° 0 mm 4 mps 650 mmHg 85%
08:00 +12°C° 0.8 mm 4 mps 650 mmHg 84%
09:00 +13°C° 0.8 mm 4 mps 651 mmHg 83%
10:00 +14°C° 0.8 mm 4 mps 652 mmHg 81%
11:00 +14°C° 1 mm 4 mps 652 mmHg 78%
12:00 +15°C° 1 mm 4 mps 652 mmHg 74%
13:00 +16°C° 0 mm 3 mps 652 mmHg 72%
14:00 +16°C° 0.6 mm 3 mps 652 mmHg 73%
15:00 +15°C° 0.6 mm 2 mps 651 mmHg 73%
16:00 +15°C° 0.6 mm 2 mps 651 mmHg 74%
17:00 +14°C° 0.4 mm 2 mps 651 mmHg 78%
18:00 +12°C° 0.4 mm 2 mps 651 mmHg 82%
19:00 +11°C° 0.4 mm 1 mps 651 mmHg 86%
20:00 +10°C° 0.2 mm 2 mps 651 mmHg 86%
21:00 +10°C° 0.2 mm 2 mps 651 mmHg 85%
22:00 +9°C° 0.2 mm 2 mps 651 mmHg 85%
23:00 +9°C° 1 mm 2 mps 651 mmHg 86%

Tomorrow, 29 September, Tuesday

Time Temperature Precipitation Wind Pressure Humidity
00:00 +10°C° 1 mm 1 mps 651 mmHg 87%
01:00 +10°C° 1 mm 1 mps 651 mmHg 88%
02:00 +10°C° 1.2 mm 1 mps 651 mmHg 89%
03:00 +10°C° 1.2 mm 1 mps 651 mmHg 89%
04:00 +10°C° 1.2 mm 1 mps 650 mmHg 89%
05:00 +10°C° 0.3 mm 1 mps 651 mmHg 86%
06:00 +11°C° 0.3 mm 1 mps 651 mmHg 84%
07:00 +11°C° 0.3 mm 1 mps 651 mmHg 81%
08:00 +12°C° 0.3 mm 1 mps 652 mmHg 76%
09:00 +13°C° 0.3 mm 1 mps 652 mmHg 70%
10:00 +14°C° 0.3 mm 2 mps 652 mmHg 65%
11:00 +14°C° 0.2 mm 2 mps 652 mmHg 63%
12:00 +15°C° 0.2 mm 2 mps 652 mmHg 62%
13:00 +14°C° 0.2 mm 3 mps 653 mmHg 61%
14:00 +13°C° 0.1 mm 3 mps 652 mmHg 63%
15:00 +13°C° 0.1 mm 3 mps 652 mmHg 65%
16:00 +12°C° 0.1 mm 3 mps 652 mmHg 67%
17:00 +11°C° 0 mm 3 mps 652 mmHg 72%
18:00 +10°C° 0 mm 3 mps 652 mmHg 77%
19:00 +9°C° 0 mm 3 mps 652 mmHg 82%
20:00 +9°C° 0 mm 2 mps 651 mmHg 83%
21:00 +8°C° 0 mm 2 mps 651 mmHg 85%
22:00 +8°C° 0 mm 2 mps 651 mmHg 87%
23:00 +8°C° 0 mm 2 mps 651 mmHg 86%

Day after tomorrow, 30 September, Wednesday

Time Temperature Precipitation Wind Pressure Humidity
00:00 +7°C° 0 mm 2 mps 651 mmHg 86%
01:00 +7°C° 0 mm 2 mps 651 mmHg 86%
02:00 +7°C° 0 mm 2 mps 650 mmHg 86%
03:00 +7°C° 0 mm 2 mps 650 mmHg 86%
04:00 +6°C° 0 mm 2 mps 650 mmHg 86%
05:00 +7°C° 0 mm 2 mps 650 mmHg 84%
06:00 +7°C° 0 mm 2 mps 650 mmHg 83%
07:00 +8°C° 0 mm 2 mps 650 mmHg 81%
08:00 +9°C° 0 mm 2 mps 650 mmHg 74%
09:00 +12°C° 0 mm 2 mps 651 mmHg 67%
10:00 +13°C° 0 mm 2 mps 651 mmHg 60%
11:00 +13°C° 0 mm 3 mps 651 mmHg 57%
12:00 +13°C° 0 mm 3 mps 651 mmHg 55%
13:00 +14°C° 0 mm 4 mps 650 mmHg 52%
14:00 +14°C° 0 mm 3 mps 650 mmHg 55%
15:00 +13°C° 0 mm 3 mps 650 mmHg 57%
16:00 +13°C° 0 mm 3 mps 649 mmHg 60%
17:00 +12°C° 0 mm 3 mps 649 mmHg 66%
18:00 +10°C° 0 mm 2 mps 649 mmHg 72%
19:00 +9°C° 0 mm 2 mps 649 mmHg 78%
20:00 +9°C° 0 mm 2 mps 648 mmHg 79%
21:00 +8°C° 0 mm 2 mps 648 mmHg 80%
22:00 +9°C° 0 mm 1 mps 648 mmHg 82%
23:00 +9°C° 0 mm 1 mps 648 mmHg 81%

1 October, Thursday

Time Temperature Precipitation Wind Pressure Humidity
00:00 +8°C° 0 mm 1 mps 648 mmHg 80%
01:00 +8°C° 0 mm 1 mps 647 mmHg 79%
02:00 +8°C° 0 mm 1 mps 647 mmHg 79%
03:00 +8°C° 0 mm 1 mps 647 mmHg 80%
04:00 +7°C° 0 mm 1 mps 646 mmHg 80%
05:00 +8°C° 0 mm 1 mps 647 mmHg 77%
06:00 +8°C° 0 mm 1 mps 647 mmHg 74%
07:00 +9°C° 0 mm 1 mps 647 mmHg 71%
08:00 +11°C° 0 mm 1 mps 647 mmHg 63%
09:00 +12°C° 0 mm 1 mps 648 mmHg 54%
10:00 +14°C° 0 mm 1 mps 648 mmHg 46%
11:00 +14°C° 0 mm 1 mps 648 mmHg 45%
12:00 +15°C° 0 mm 2 mps 648 mmHg 45%
13:00 +15°C° 0 mm 2 mps 648 mmHg 44%
14:00 +15°C° 0 mm 2 mps 648 mmHg 48%
15:00 +14°C° 0 mm 2 mps 648 mmHg 51%
16:00 +14°C° 0 mm 2 mps 648 mmHg 55%
17:00 +13°C° 0 mm 2 mps 647 mmHg 61%
18:00 +11°C° 0 mm 1 mps 647 mmHg 67%
19:00 +10°C° 0 mm 1 mps 647 mmHg 73%
20:00 +10°C° 0 mm 1 mps 647 mmHg 74%
21:00 +9°C° 0 mm 0 mps 647 mmHg 75%
22:00 +8°C° 0 mm 0 mps 648 mmHg 76%
23:00 +8°C° 0 mm 0 mps 647 mmHg 77%

2 October, Friday

Time Temperature Precipitation Wind Pressure Humidity
00:00 +9°C° 0 mm 1 mps 647 mmHg 77%
01:00 +9°C° 0 mm 1 mps 647 mmHg 78%
02:00 +9°C° 0 mm 1 mps 647 mmHg 78%
03:00 +8°C° 0 mm 1 mps 647 mmHg 79%
04:00 +8°C° 0 mm 1 mps 647 mmHg 79%
05:00 +9°C° 0 mm 1 mps 647 mmHg 76%
06:00 +10°C° 0 mm 1 mps 647 mmHg 73%
07:00 +9°C° 0 mm 2 mps 648 mmHg 70%
08:00 +12°C° 0 mm 2 mps 648 mmHg 63%
09:00 +14°C° 0 mm 2 mps 649 mmHg 57%
10:00 +15°C° 0 mm 2 mps 650 mmHg 50%
11:00 +16°C° 0 mm 2 mps 650 mmHg 49%
12:00 +17°C° 0 mm 3 mps 650 mmHg 49%
13:00 +17°C° 0 mm 3 mps 650 mmHg 48%
14:00 +17°C° 0 mm 3 mps 650 mmHg 51%
15:00 +16°C° 0 mm 3 mps 650 mmHg 54%
16:00 +16°C° 0 mm 2 mps 650 mmHg 57%
17:00 +14°C° 0 mm 2 mps 650 mmHg 63%
18:00 +13°C° 0 mm 2 mps 650 mmHg 70%
19:00 +12°C° 0 mm 2 mps 650 mmHg 76%
20:00 +12°C° 0 mm 2 mps 650 mmHg 76%
21:00 +10°C° 0 mm 2 mps 650 mmHg 75%
22:00 +10°C° 0 mm 2 mps 650 mmHg 75%
23:00 +10°C° 0 mm 2 mps 650 mmHg 75%

3 October, Saturday

Time Temperature Precipitation Wind Pressure Humidity
00:00 +10°C° 0 mm 2 mps 650 mmHg 75%
01:00 +10°C° 0 mm 2 mps 650 mmHg 75%
02:00 +10°C° 0 mm 2 mps 650 mmHg 74%
03:00 +9°C° 0 mm 2 mps 650 mmHg 73%
04:00 +9°C° 0 mm 2 mps 650 mmHg 72%
05:00 +10°C° 0 mm 2 mps 650 mmHg 69%
06:00 +12°C° 0 mm 2 mps 651 mmHg 66%
07:00 +12°C° 0 mm 2 mps 651 mmHg 62%
08:00 +14°C° 0 mm 2 mps 652 mmHg 54%
09:00 +16°C° 0 mm 3 mps 653 mmHg 47%
10:00 +19°C° 0 mm 3 mps 653 mmHg 39%
11:00 +19°C° 0 mm 3 mps 653 mmHg 38%
12:00 +20°C° 0 mm 3 mps 653 mmHg 37%
13:00 +21°C° 0 mm 3 mps 654 mmHg 36%
14:00 +20°C° 0 mm 3 mps 653 mmHg 39%
15:00 +20°C° 0 mm 3 mps 653 mmHg 42%
16:00 +20°C° 0 mm 2 mps 653 mmHg 45%
17:00 +18°C° 0 mm 2 mps 653 mmHg 48%
18:00 +17°C° 0 mm 2 mps 652 mmHg 51%
19:00 +14°C° 0 mm 3 mps 652 mmHg 53%
20:00 +15°C° 0 mm 2 mps 652 mmHg 52%
21:00 +15°C° 0 mm 2 mps 652 mmHg 51%
22:00 +15°C° 0 mm 2 mps 652 mmHg 50%
23:00 +15°C° 0 mm 2 mps 652 mmHg 48%
Show more